Regional Weather Roundup
Issued by NWS Boston, MA

Current Version | Previous Version | Text Only | Print | Product List | Glossary Off
Versions: 1 2 3 4 5 6 7 8 9 10 11 12 13 14 15 16 17 18 19 20 21 22 23 24 25 26 27 28 29 30 31 32 33 34 35 36 37 38 39 40 41 42 43 44 45 46 47 48 49 50
000 ASUS41 KBOX 170310 RWRBOX REGIONAL WEATHER ROUNDUP NATIONAL WEATHER SERVICE BOSTON/NORTON MA 1100 PM EDT THU AUG 16 2018 NOTE: "FAIR" INDICATES FEW OR NO CLOUDS BELOW 12,000 FEET WITH NO SIGNIFICANT WEATHER AND/OR OBSTRUCTIONS TO VISIBILITY. MAZALL-170400- EASTERN MASSACHUSETTS CITY SKY/WX TMP DP RH WIND PRES REMARKS BOSTON FAIR 77 66 68 E3 30.06R BEVERLY FAIR 70 66 87 CALM 30.06R LAWRENCE FAIR 74 63 68 NE3 30.09R BEDFORD FAIR 71 67 87 CALM 30.06R BLUE HILL N/A 77 64 64 SE5 30.08R NORWOOD MOCLDY 75 71 87 CALM 30.05R MARSHFIELD FAIR 73 72 94 CALM 30.06R PLYMOUTH FAIR 73 69 87 CALM 30.07R TAUNTON FAIR 74 71 91 CALM 30.05R NEW BEDFORD FAIR 75 73 93 N3 30.05R $$ MAZALL-170400- CAPE COD AND THE ISLANDS CITY SKY/WX TMP DP RH WIND PRES REMARKS FALMOUTH FAIR 73 70 88 CALM 30.07S HYANNIS FAIR 73 69 87 CALM 30.05R CHATHAM FAIR 74 69 85 CALM 30.06R PROVINCETOWN FAIR 68 66 93 CALM 30.06R NANTUCKET FAIR 76 71 85 NW6 30.06R MARTHAS VNYRD FAIR 77 69 76 W7 30.06R $$ MAZALL-170400- CENTRAL AND WESTERN MASSACHUSETTS CITY SKY/WX TMP DP RH WIND PRES REMARKS WORCESTER CLOUDY 74 68 81 W7 30.10S FITCHBURG MOCLDY 73 70 90 N3 30.09R ORANGE FAIR 73 70 90 CALM 30.09S SPRINGFIELD CLEAR 70 68 94 CALM 30.06S WESTFIELD FAIR 72 71 97 CALM 30.07R NORTH ADAMS FAIR 67 65 93 CALM 30.09S FOG PITTSFIELD FAIR 70 66 87 CALM 30.11S $$ RIZALL-170400- RHODE ISLAND CITY SKY/WX TMP DP RH WIND PRES REMARKS PROVIDENCE FAIR 78 72 81 W5 30.06S NEWPORT FAIR 78 70 76 CALM 30.06S BLOCK ISLAND FAIR 75 70 84 SW8 30.08S SMITHFIELD CLOUDY 74 70 87 CALM 30.08S WESTERLY FAIR 76 73 91 CALM 30.07F $$ CTZALL-170400- CONNECTICUT CITY SKY/WX TMP DP RH WIND PRES REMARKS BRADLEY INTL FAIR 77 71 82 SW3 30.06S HARTFORD FAIR 76 72 87 CALM 30.06S BRIDGEPORT FAIR 79 73 82 CALM 30.06S DANBURY FAIR 72 70 93 CALM 30.10S GROTON FAIR 77 69 76 W5 30.06S NEW HAVEN FAIR 76 72 87 CALM 30.07S CHESTER FAIR 77 72 83 SW5 30.09S MERIDEN FAIR 72 70 93 CALM 30.07S WILLIMANTIC FAIR 74 73 97 NE3 30.08R OXFORD FAIR 73 70 90 CALM 30.11S $$ MEZ002-015-021-024-NHZ003-005-008-011-012-014-VTZ005-008-170400- NORTHERN NEW ENGLAND CITY SKY/WX TMP DP RH WIND PRES REMARKS PORTLAND ME FAIR 65 61 87 N3 30.08R BANGOR ME FAIR 63 54 72 CALM 30.07R CONCORD NH FAIR 66 64 93 NE6 30.08S MANCHESTER NH FAIR 74 66 76 CALM 30.06R NASHUA NH FAIR 70 70 100 NW3 30.08R PORTSMOUTH NH CLEAR 70 63 78 W3 30.06R JAFFREY NH FAIR 69 68 96 CALM 30.12R KEENE NH FAIR N/A N/A N/A CALM 30.09R BURLINGTON VT FAIR 64 59 83 CALM 30.09S MT. WASHINGTON PTCLDY 46 28 49 NW35 N/A $$ NYZ052-076-170400- EASTERN NEW YORK CITY SKY/WX TMP DP RH WIND PRES REMARKS ALBANY FAIR 76 68 76 S5 30.07S NEW YORK CITY FAIR 86 68 54 SW9 30.07R $$ ANZALL-170400- MARINE OBSERVATIONS STATION/POSITION TIME TEMP WIND PRES VSBY WAVE AIR SEA DIR/SP/G HT/PER (UTC) (F) (DEG/KT/KT) (MB) (MI) (FT/S) BOSTON BUOY 0250 75 74 360/ 2/ 2 1017.2R 1/ 7 BUZZARDS BAY 0200 77 260/ 14/ 15 1018.1R NANTUCKET SOUND 0250 79 78 320/ 4/ 4 1017.8R 1/ 3 MASS BAY-STELLWA 0204 73 71 10/ 4/ 6 1016.0R 1 7/8 1/ 6 ISLE OF SHOALS 0200 76 340/ 10/ 11 1017.2R S OF BLOCK IS 0243 77 N/A 3/ 6 $$ ......................KEY......................... SKY/WX - SKY CONDITION/PRESENT WEATHER TMP - TEMPERATURE IN FAHRENHEIT DWPT - DEWPOINT IN FAHRENHEIT RH - RELATIVE HUMIDITY IN PERCENT WIND - DIRECTION AND SPEED IN MPH PRES - MEAN SEA LEVEL PRESSURE IN INCHES OF HG WCI - WIND CHILL INDEX VSB - VISIBILITY IN MILES HX - HEAT INDEX TC - TEMPERATURE IN CELSIUS VRB - VARIABLE WIND DIRECTION N/A - NOT AVAILABLE

USA.gov is the U.S. government's official web portal to all federal, state and local government web resources and services.